Terminal Aerodrome Forecast
Issued by NWS

Current Version | Previous Version | Graphics & Text | Print | Product List | Glossary On
Versions: 1 2 3 4 5 6 7 8 9 10 11 12 13 14 15 16 17 18 19
000
FTUS41 KILN 162100 AAA
TAFLCK
TAF AMD
KLCK 162135Z 1622/1718 15010KT P6SM VCSH OVC025
      TEMPO 1622/1624 -SHRA OVC015
     FM170100 19005KT 4SM BR VCSH OVC015
     FM170400 24006KT 2SM BR VCSH OVC007
     FM171500 32006KT P6SM SCT015=

USA.gov is the U.S. government's official web portal to all federal, state and local government web resources and services.